Back to catalog

UWE-4

AliveAmateur RadioPO
NORAD 43880·PAYLOAD·🇩🇪 Germany

Launched Dec 27, 2018 from Vostochny Cosmodrome

Loading…

Next Passes (next 24 hours)

TLE

FreshSource: AMSAT

Epoch: Sep 13, 2026, 19:01 UTC

1 43880U 18111E   26256.79245483  .00037613  00000-0  63234-3 0  9999
2 43880  97.5820 189.6194 0007371  27.6586 332.5056 15.51636958424492

Track UWE-4 in real time with AllMySat

Download on the App Store